Find ETRSS-1

NORAD ID: 44880 Int'l Des: NNA 2019-093 Owner: ESSTI Country: ET operational
LEOCIRCULARRETROGRADESSO

リアルタイム位置

3D地球を読み込み中...

ETRSS-1について

説明を読み込み中...

次回通過

Passes for default location (London). Set your location on the main map for personalized predictions.

高度履歴

Loading altitude history...

軌道要素

1 44880U 19093B 26134.24619692 .00001618 00000-0 15060-3 0 9992
2 44880 97.7811 218.7663 0012021 160.3339 199.8348 14.95661808346983
Epoch: May 14, 2026 • Age: 12 hours

現在のステータス

高度 590.4 km
速度 7.57 km/s
衛星直下点 81.77°N, 26.66°W
打ち上げ日 Dec 20, 2019
運用期間 6.3 years
タイプ other

技術仕様

分類 Payload
質量 70.00 kg
乾燥質量 70.00 kg
総質量 70.00 kg
長さ 0.50 m
直径 0.30 m
スパン 0.50 m
形状 Box + 2 pan
製造者 DFHZ
フェーズステータス In Orbit
所有者/国 ESSTI/ET

Most Searched